Flag for Greenland Weather past 2 weeks in Sisimiut, Greenland

Now
14 °F

Sunny.


Feels Like: 14 °F
Forecast: -3 / 17 °F
Wind: 2 mph from Southwest

Location: Sdr Stroemfjord

Current Time: Apr 18, 2015 at 6:26:17 PM

Latest Report: Apr 18, 2015 at 5:00 PM


Visibility: 22 mi

Pressure: 29.84 "Hg

Humidity: 39%

Dew point: -7 °F

Location of SisimiutLocation

Historic Weather in Sisimiut — Graph

°F

Sisimiut temperature yesterday

Maximum temperature yesterday: 7 °F (at 4:00 PM)
Minimum temperature yesterday: -9 °F (at 6:00 AM)
Average temperature yesterday: 1 °F

Past Weeks' High & Low Weather Summary

 TemperatureHumidityPressure
High34 °F (Apr 14, 11:00 AM)87% (Apr 3, 10:00 PM)29.94 "Hg (Apr 3, 10:00 PM)
Low-9 °F (Apr 17, 6:00 AM)29% (Apr 11, 4:00 PM)28.76 "Hg (Apr 15, 4:00 AM)
Average10 °F64%29.52 "Hg
* Reported Apr 3 4:00 PM — Apr 18 4:00 PM, Sisimiut, Weather by CustomWeather, © 2015

Note: Actual official high and low records may vary slightly from our data, if they occured in-between our weather recording intervals... More about our weather records

Advertising

Sisimiut weather history for previous 24 hours

 ConditionsComfort  
Time TempWeatherWind HumidityBarometerVisibility
4:00 PM
Sat, Apr 18
10 °FPassing clouds.7 mph48%29.83 "Hg37 mi
3:00 PM10 °FSunny.6 mph49%29.86 "Hg22 mi
2:00 PM11 °FSunny.2 mph41%29.88 "Hg22 mi
1:00 PM8 °FSunny.5 mph50%29.90 "Hg14 mi
12:00 PM6 °FSunny.5 mph52%29.91 "Hg15 mi
11:00 AM4 °FSunny.2 mph55%29.93 "Hg14 mi
10:00 AM3 °FSunny.3 mph55%29.93 "Hg47 mi
9:00 AM4 °FSunny.2 mph52%29.94 "Hg19 mi
8:00 AM1 °FSunny.5 mph57%29.93 "Hg25 mi
7:00 AM0 °FSunny.5 mph66%29.93 "Hg28 mi
6:00 AM-5 °FSunny.7 mph69%29.93 "Hg31 mi
5:00 AM-7 °FClear.6 mph72%29.93 "Hg31 mi
4:00 AM-4 °FClear.2 mph70%29.93 "Hg47 mi
3:00 AM-3 °FClear.6 mph75%29.92 "Hg28 mi
2:00 AM0 °FClear.2 mph74%29.92 "Hg28 mi
1:00 AM-1 °FClear.2 mph72%29.91 "Hg28 mi
12:00 AM0 °FPassing clouds.2 mph67%29.92 "Hg28 mi
11:00 PM
Fri, Apr 17
3 °FPassing clouds.2 mph69%29.90 "Hg28 mi
10:00 PM5 °FOvercast.5 mph66%29.90 "Hg47 mi
9:00 PM5 °FOvercast.1 mph63%29.88 "Hg31 mi
8:00 PM6 °FPartly sunny.2 mph59%29.85 "Hg25 mi
7:00 PM7 °FOvercast.5 mph60%29.81 "Hg22 mi
6:00 PM6 °FPartly sunny.6 mph62%29.78 "Hg22 mi
Weather by CustomWeather, © 2015

See weather overviewHow to use our weather pages